DLH63E EHBK-EGLL

Flight info

Callsign DLH63E
Flight time 0h 55m
Altitude 34000
Route EHBK/21 PESER DCT TANET
Aircraft B77L/H-SDE1E2E3FGHIJ2J3J4J5M1RWXY/LB1D1

Departure

Time 2026-05-03 20:15
Airport Maastricht Aachen Airport (EHBK)

Arrival

Time 2026-05-03 21:10
Airport London Heathrow Airport (EGLL)
Time Latitude Longitude Altitude Speed Heading
2026-05-03 20:15 50.93639 5.91382 7041 ft 295 kts 38°
2026-05-03 20:15 50.95241 5.93456 7675 ft 298 kts 38°
2026-05-03 20:15 50.96925 5.95342 8188 ft 297 kts 20°
2026-05-03 20:15 50.98945 5.95848 8628 ft 294 kts 349°
2026-05-03 20:16 51.00936 5.95324 9127 ft 296 kts 348°
2026-05-03 20:16 51.02989 5.94849 9697 ft 300 kts 349°
2026-05-03 20:16 51.05065 5.94403 10270 ft 303 kts 349°
2026-05-03 20:16 51.07187 5.93951 10678 ft 312 kts 349°
2026-05-03 20:17 51.09354 5.93490 11202 ft 316 kts 349°
2026-05-03 20:17 51.11539 5.93027 11804 ft 317 kts 349°
2026-05-03 20:17 51.13739 5.92563 12422 ft 319 kts 349°
2026-05-03 20:17 51.15946 5.92096 13006 ft 321 kts 349°
2026-05-03 20:18 51.18166 5.91626 13580 ft 323 kts 349°
2026-05-03 20:18 51.20404 5.91152 14141 ft 325 kts 349°
2026-05-03 20:18 51.22659 5.90668 14604 ft 327 kts 347°
2026-05-03 20:18 51.24785 5.89512 14904 ft 323 kts 321°
2026-05-03 20:19 51.26383 5.87071 15307 ft 316 kts 302°
2026-05-03 20:19 51.27642 5.84186 15768 ft 318 kts 301°
2026-05-03 20:19 51.28894 5.81267 16248 ft 321 kts 300°
2026-05-03 20:19 51.30151 5.78326 16780 ft 322 kts 300°
2026-05-03 20:20 51.31414 5.75372 17289 ft 324 kts 300°
2026-05-03 20:20 51.32693 5.72384 17770 ft 327 kts 300°
2026-05-03 20:20 51.33988 5.69364 18230 ft 331 kts 300°
2026-05-03 20:20 51.35293 5.66325 18665 ft 333 kts 300°
2026-05-03 20:21 51.36609 5.63262 19094 ft 334 kts 300°
2026-05-03 20:21 51.37929 5.60188 19526 ft 336 kts 300°
2026-05-03 20:21 51.39260 5.57087 19944 ft 339 kts 300°
2026-05-03 20:21 51.40598 5.53966 20360 ft 341 kts 300°
2026-05-03 20:22 51.41948 5.50815 20759 ft 343 kts 300°
2026-05-03 20:22 51.43302 5.47653 21177 ft 345 kts 300°
2026-05-03 20:22 51.44665 5.44462 21578 ft 347 kts 300°
2026-05-03 20:22 51.46030 5.41263 22053 ft 348 kts 299°
2026-05-03 20:23 51.47190 5.37908 22366 ft 341 kts 284°
2026-05-03 20:23 51.47836 5.34241 22619 ft 344 kts 280°
2026-05-03 20:23 51.48430 5.30514 23002 ft 346 kts 280°
2026-05-03 20:23 51.49033 5.26768 23169 ft 357 kts 281°
2026-05-03 20:24 51.49678 5.22839 23281 ft 369 kts 281°
2026-05-03 20:24 51.50354 5.18794 23381 ft 381 kts 281°
2026-05-03 20:24 51.51060 5.14622 23484 ft 393 kts 282°
2026-05-03 20:24 51.51790 5.10324 23565 ft 405 kts 282°
2026-05-03 20:25 51.52546 5.05888 23655 ft 417 kts 282°
2026-05-03 20:25 51.53320 5.01343 23788 ft 426 kts 282°
2026-05-03 20:25 51.54106 4.96719 24051 ft 432 kts 282°
2026-05-03 20:25 51.54898 4.92055 24448 ft 434 kts 281°
2026-05-03 20:26 51.55690 4.87359 24892 ft 435 kts 281°
2026-05-03 20:26 51.56481 4.82659 25298 ft 437 kts 281°
2026-05-03 20:26 51.57277 4.77933 25679 ft 440 kts 281°
2026-05-03 20:26 51.58078 4.73174 26061 ft 442 kts 281°
2026-05-03 20:27 51.58872 4.68447 26398 ft 444 kts 281°
2026-05-03 20:27 51.59680 4.63627 26760 ft 447 kts 280°
2026-05-03 20:27 51.60488 4.58785 27123 ft 449 kts 280°
2026-05-03 20:27 51.61283 4.53911 27463 ft 450 kts 278°
2026-05-03 20:28 51.61637 4.48948 27753 ft 445 kts 264°
2026-05-03 20:28 51.61467 4.43984 28104 ft 445 kts 262°
2026-05-03 20:28 51.61234 4.39010 28449 ft 447 kts 262°
2026-05-03 20:28 51.61003 4.34013 28769 ft 449 kts 262°
2026-05-03 20:29 51.60788 4.28999 29072 ft 451 kts 262°
2026-05-03 20:29 51.60593 4.24004 29454 ft 451 kts 262°
2026-05-03 20:29 51.60411 4.18974 29915 ft 450 kts 262°
2026-05-03 20:29 51.60237 4.13953 30323 ft 448 kts 262°
2026-05-03 20:30 51.60068 4.08973 30697 ft 446 kts 262°
2026-05-03 20:30 51.59897 4.03995 31038 ft 445 kts 262°
2026-05-03 20:30 51.59725 3.99024 31354 ft 445 kts 262°
2026-05-03 20:30 51.59608 3.95670 31592 ft 444 kts 263°
2026-05-03 20:31 51.59432 3.90719 31856 ft 444 kts 263°
2026-05-03 20:31 51.59069 3.80786 31919 ft 448 kts 262°
2026-05-03 20:32 51.58700 3.70839 31907 ft 444 kts 262°
2026-05-03 20:32 51.58325 3.60958 31916 ft 442 kts 262°
2026-05-03 20:33 51.57941 3.51106 31917 ft 441 kts 262°
2026-05-03 20:33 51.57549 3.41255 31916 ft 442 kts 262°
2026-05-03 20:34 51.57148 3.31424 31926 ft 445 kts 262°
2026-05-03 20:34 51.56732 3.21427 31920 ft 449 kts 262°
2026-05-03 20:35 51.56309 3.11399 31920 ft 450 kts 262°
2026-05-03 20:35 51.55876 3.01359 31918 ft 450 kts 262°
2026-05-03 20:36 51.55435 2.91320 31917 ft 449 kts 262°
2026-05-03 20:36 51.54988 2.81364 31923 ft 449 kts 261°
2026-05-03 20:37 51.54530 2.71353 31920 ft 449 kts 261°
2026-05-03 20:37 51.54077 2.61521 31896 ft 429 kts 261°
2026-05-03 20:38 51.53635 2.52132 31894 ft 419 kts 261°
2026-05-03 20:38 51.53181 2.42810 31901 ft 419 kts 261°
2026-05-03 20:39 51.52719 2.33470 31919 ft 420 kts 261°
2026-05-03 20:39 51.52249 2.24084 31932 ft 422 kts 261°
2026-05-03 20:40 51.51773 2.14698 31942 ft 424 kts 261°
2026-05-03 20:40 51.51286 2.05229 31952 ft 426 kts 261°
2026-05-03 20:41 51.50793 1.95789 31960 ft 427 kts 261°
2026-05-03 20:41 51.50288 1.86269 31975 ft 429 kts 261°
2026-05-03 20:42 51.49773 1.76730 31983 ft 429 kts 261°
2026-05-03 20:42 51.49251 1.67170 31983 ft 430 kts 261°
2026-05-03 20:43 51.48720 1.57611 31982 ft 429 kts 261°
2026-05-03 20:43 51.48182 1.48070 31979 ft 429 kts 260°
2026-05-03 20:44 51.47640 1.38593 31994 ft 429 kts 260°
2026-05-03 20:44 51.47088 1.29087 31990 ft 428 kts 260°
2026-05-03 20:45 51.46528 1.19574 31988 ft 428 kts 260°
2026-05-03 20:45 51.45962 1.10072 31988 ft 428 kts 260°
2026-05-03 20:46 51.45389 1.00571 31992 ft 428 kts 260°
2026-05-03 20:46 51.44302 0.91321 32001 ft 416 kts 240°
2026-05-03 20:47 51.41084 0.83799 32029 ft 414 kts 231°
2026-05-03 20:47 51.37689 0.76224 32047 ft 421 kts 232°
2026-05-03 20:48 51.35575 0.71425 32045 ft 421 kts 232°
2026-05-03 20:49 51.35245 0.70678 32046 ft 421 kts 232°
2026-05-03 20:49 51.31944 0.63073 31705 ft 415 kts 238°
2026-05-03 20:49 51.30885 0.58752 31175 ft 427 kts 253°
2026-05-03 20:50 51.30556 0.53950 31155 ft 443 kts 267°
2026-05-03 20:50 51.31132 0.44072 30419 ft 441 kts 271°
2026-05-03 20:50 51.31418 0.39210 29210 ft 435 kts 270°
2026-05-03 20:51 51.31658 0.34431 28068 ft 427 kts 270°
2026-05-03 20:51 51.31878 0.29739 26948 ft 420 kts 270°
2026-05-03 20:51 51.32094 0.25104 25867 ft 414 kts 270°
2026-05-03 20:51 51.32305 0.20545 24829 ft 408 kts 270°
2026-05-03 20:52 51.32512 0.16052 23822 ft 402 kts 270°
2026-05-03 20:52 51.32717 0.11632 22706 ft 397 kts 271°
2026-05-03 20:52 51.32916 0.07302 21579 ft 392 kts 271°
2026-05-03 20:52 51.33112 0.02982 20508 ft 387 kts 271°
2026-05-03 20:53 51.33307 -0.01291 19444 ft 383 kts 271°
2026-05-03 20:53 51.33499 -0.05505 18437 ft 379 kts 271°
2026-05-03 20:53 51.33690 -0.09690 17341 ft 375 kts 272°
2026-05-03 20:53 51.33891 -0.13828 16244 ft 370 kts 271°
2026-05-03 20:54 51.33862 -0.17898 15175 ft 363 kts 260°
2026-05-03 20:54 51.32125 -0.25220 13080 ft 349 kts 232°
2026-05-03 20:54 51.30462 -0.28009 11988 ft 344 kts 217°
2026-05-03 20:55 51.28402 -0.29882 10939 ft 340 kts 200°
2026-05-03 20:55 51.26097 -0.30645 9921 ft 338 kts 182°
2026-05-03 20:55 51.23807 -0.30185 8850 ft 337 kts 163°
2026-05-03 20:55 51.21742 -0.28495 7882 ft 333 kts 142°
2026-05-03 20:56 51.20254 -0.25752 7113 ft 325 kts 119°
2026-05-03 20:56 51.19577 -0.22383 6355 ft 318 kts 96°
2026-05-03 20:56 51.19553 -0.18904 5575 ft 310 kts 86°
2026-05-03 20:56 51.20075 -0.15622 4901 ft 299 kts 62°
2026-05-03 20:57 51.21063 -0.12917 4906 ft 267 kts 59°
2026-05-03 20:57 51.21986 -0.10488 4844 ft 253 kts 59°
2026-05-03 20:57 51.23042 -0.07719 4852 ft 250 kts 59°
2026-05-03 20:57 51.23942 -0.05371 4847 ft 249 kts 59°
2026-05-03 20:58 51.24870 -0.03077 4826 ft 241 kts 48°
2026-05-03 20:58 51.26245 -0.01730 4825 ft 235 kts
2026-05-03 20:58 51.27854 -0.02107 4870 ft 240 kts 329°
2026-05-03 20:58 51.29260 -0.03550 4910 ft 241 kts 330°
2026-05-03 20:59 51.30764 -0.04716 4900 ft 241 kts 335°
2026-05-03 20:59 51.32315 -0.05799 4735 ft 245 kts 336°
2026-05-03 20:59 51.33861 -0.06869 4545 ft 239 kts 336°
2026-05-03 20:59 51.35378 -0.07923 4354 ft 235 kts 336°
2026-05-03 21:00 51.36873 -0.08967 4192 ft 235 kts 336°
2026-05-03 21:00 51.37361 -0.09308 4129 ft 235 kts 336°
2026-05-03 21:00 51.39867 -0.11053 3859 ft 233 kts 339°
2026-05-03 21:00 51.41431 -0.11364 3644 ft 230 kts 11°
2026-05-03 21:01 51.42842 -0.10269 3501 ft 228 kts 44°
2026-05-03 21:01 51.43639 -0.08092 3487 ft 232 kts 77°
2026-05-03 21:01 51.43785 -0.05502 3517 ft 235 kts 90°
2026-05-03 21:01 51.43746 -0.02873 3508 ft 235 kts 92°
2026-05-03 21:02 51.43679 -0.00257 3504 ft 235 kts 92°
2026-05-03 21:02 51.43611 0.02355 3506 ft 234 kts 92°
2026-05-03 21:02 51.43541 0.04964 3507 ft 234 kts 93°
2026-05-03 21:02 51.43469 0.07525 3531 ft 232 kts 93°
2026-05-03 21:03 51.43677 0.10029 3496 ft 229 kts 63°
2026-05-03 21:03 51.44817 0.11781 3515 ft 234 kts 22°
2026-05-03 21:03 51.46415 0.11974 3529 ft 234 kts 345°
2026-05-03 21:03 51.47860 0.10808 3558 ft 233 kts 321°
2026-05-03 21:04 51.48893 0.08823 3551 ft 233 kts 296°
2026-05-03 21:04 51.49217 0.06316 3546 ft 231 kts 266°
2026-05-03 21:04 51.49052 0.03765 3559 ft 231 kts 264°
2026-05-03 21:04 51.48889 0.01189 3561 ft 233 kts 264°
2026-05-03 21:05 51.48730 -0.01401 3561 ft 234 kts 264°
2026-05-03 21:05 51.48571 -0.04009 3552 ft 235 kts 264°
2026-05-03 21:05 51.48416 -0.06618 3558 ft 235 kts 264°
2026-05-03 21:05 51.48266 -0.09157 3536 ft 228 kts 264°
2026-05-03 21:06 51.48117 -0.11676 3377 ft 221 kts 264°
2026-05-03 21:06 51.47974 -0.14010 3255 ft 201 kts 264°
2026-05-03 21:06 51.47881 -0.16177 3209 ft 188 kts 268°
2026-05-03 21:06 51.47851 -0.18227 3176 ft 182 kts 269°
2026-05-03 21:07 51.47839 -0.20282 2914 ft 185 kts 270°
2026-05-03 21:07 51.47832 -0.22330 2662 ft 180 kts 270°
2026-05-03 21:07 51.47826 -0.24305 2428 ft 175 kts 270°
2026-05-03 21:07 51.47820 -0.26254 2199 ft 174 kts 270°
2026-05-03 21:08 51.47814 -0.28180 1997 ft 172 kts 270°
2026-05-03 21:08 51.47810 -0.29451 1827 ft 172 kts 270°
2026-05-03 21:08 51.47804 -0.31373 1580 ft 169 kts 270°
2026-05-03 21:08 51.47798 -0.33213 1337 ft 161 kts 269°
2026-05-03 21:09 51.47792 -0.34999 1124 ft 160 kts 269°
2026-05-03 21:09 51.47787 -0.36720 925 ft 160 kts 269°
2026-05-03 21:09 51.47781 -0.38504 718 ft 159 kts 269°
2026-05-03 21:09 51.47777 -0.40274 520 ft 158 kts 269°
2026-05-03 21:10 51.47763 -0.42017 313 ft 158 kts 270°
2026-05-03 21:10 51.47758 -0.43783 103 ft 158 kts 270°
2026-05-03 21:10 51.47757 -0.45368 96 ft 106 kts 270°
2026-05-03 21:10 51.47753 -0.45894 90 ft 19 kts 268°
2026-05-03 21:11 51.47753 -0.46110 94 ft 19 kts 270°
2026-05-03 21:11 51.47755 -0.46325 100 ft 19 kts 270°
2026-05-03 21:11 51.47739 -0.46539 102 ft 19 kts 258°
2026-05-03 21:11 51.47694 -0.46741 103 ft 19 kts 242°
2026-05-03 21:12 51.47665 -0.46822 102 ft 6 kts 233°
2026-05-03 21:12 51.47633 -0.46867 101 ft 7 kts 213°
2026-05-03 21:12 51.47583 -0.46905 100 ft 9 kts 201°
2026-05-03 21:12 51.47542 -0.46922 98 ft 0 kts 188°
2026-05-03 21:13 51.47539 -0.46922 98 ft 1 kts 186°
2026-05-03 21:13 51.47534 -0.46923 98 ft 0 kts 185°
2026-05-03 21:13 51.47495 -0.46914 96 ft 15 kts 168°
2026-05-03 21:13 51.47374 -0.46875 96 ft 19 kts 171°
2026-05-03 21:14 51.47270 -0.46868 93 ft 16 kts 180°
2026-05-03 21:14 51.47159 -0.46869 93 ft 16 kts 180°
2026-05-03 21:14 51.47046 -0.46869 93 ft 16 kts 179°
2026-05-03 21:14 51.46931 -0.46868 91 ft 15 kts 180°
2026-05-03 21:15 51.46862 -0.46867 92 ft 2 kts 179°
2026-05-03 21:15 51.46846 -0.46867 93 ft 2 kts 179°
2026-05-03 21:15 51.46831 -0.46866 93 ft 2 kts 179°
2026-05-03 21:15 51.46819 -0.46866 94 ft 2 kts 179°
2026-05-03 21:16 51.46789 -0.46865 98 ft 9 kts 179°
2026-05-03 21:16 51.46748 -0.46966 98 ft 19 kts 264°
2026-05-03 21:16 51.46747 -0.47229 96 ft 19 kts 270°
2026-05-03 21:16 51.46739 -0.47293 94 ft 4 kts 248°
2026-05-03 21:17 51.46687 -0.47348 95 ft 6 kts 204°
2026-05-03 21:17 51.46661 -0.47414 93 ft 16 kts 245°
2026-05-03 21:17 51.46497 -0.47493 95 ft 27 kts 180°
2026-05-03 21:17 51.46351 -0.47450 99 ft 20 kts 128°
2026-05-03 21:18 51.46325 -0.47302 97 ft 13 kts 93°
2026-05-03 21:18 51.46323 -0.47121 95 ft 19 kts 90°
2026-05-03 21:18 51.46322 -0.46873 93 ft 26 kts 90°
2026-05-03 21:18 51.46291 -0.46692 96 ft 7 kts 138°
2026-05-03 21:19 51.46241 -0.46692 93 ft 9 kts 180°
2026-05-03 21:19 51.46190 -0.46694 91 ft 1 kts 184°
2026-05-03 21:19 51.46186 -0.46694 91 ft 0 kts 179°